This is the latest recevied weather packets stored in our database for station/object K6HFP. If no packets are shown the sender has not sent any weather packets the latest 1 day(s).
| Time | Temp. | Humidity | Pressure | Rain* | Wind** | Luminosity | Snow |
|---|---|---|---|---|---|---|---|
| 1777990799 | 10° C | 96% | 1013.3 hPa | 0 mm | 0.45 m/s, 159° | 30 W/m² | - |
| 1777990496 | 10° C | 96% | 1013.3 hPa | 0 mm | 0 m/s | 19 W/m² | - |
| 1777990193 | 10° C | 96% | 1013.4 hPa | 0 mm | 0 m/s | 16 W/m² | - |
| 1777989890 | 10° C | 96% | 1013.5 hPa | 0 mm | 0 m/s | 15 W/m² | - |
| 1777989586 | 10° C | 96% | 1013.3 hPa | 0 mm | 0 m/s | 19 W/m² | - |
| 1777989283 | 10° C | 96% | 1013.2 hPa | 0 mm | 0 m/s | 18 W/m² | - |
| 1777988979 | 10° C | 96% | 1013.2 hPa | 0 mm | 0 m/s | 17 W/m² | - |
| 1777988676 | 10° C | 96% | 1012.9 hPa | 0 mm | 0 m/s | 15 W/m² | - |
| 1777988372 | 10° C | 96% | 1012.8 hPa | 0 mm | 0 m/s | 15 W/m² | - |
| 1777988070 | 10° C | 96% | 1013.2 hPa | 0 mm | 0 m/s | 11 W/m² | - |
| 1777987765 | 10° C | 96% | 1013 hPa | 0 mm | 0 m/s | 9 W/m² | - |
| 1777987462 | 10° C | 96% | 1013 hPa | 0 mm | 0 m/s | 6 W/m² | - |
| 1777987160 | 10° C | 96% | 1012.9 hPa | 0 mm | 0.45 m/s, 162° | 4 W/m² | - |
| 1777986856 | 10° C | 96% | 1013 hPa | 0 mm | 0 m/s | 2 W/m² | - |
| 1777986554 | 10° C | 96% | 1013.1 hPa | 0 mm | 0 m/s | 1 W/m² | - |
| 1777986252 | 10° C | 96% | 1013 hPa | 0 mm | 0 m/s | 1 W/m² | - |
| 1777985949 | 10° C | 96% | 1012.8 hPa | 0 mm | 0 m/s | 1 W/m² | - |
| 1777985647 | 10° C | 96% | 1013.1 hPa | 0 mm | 0 m/s | 0 W/m² | - |
| 1777985343 | 10° C | 96% | 1012.9 hPa | 0 mm | 0 m/s | 0 W/m² | - |
| 1777985040 | 10° C | 96% | 1013 hPa | 0 mm | 0 m/s | 0 W/m² | - |
| 1777984736 | 10° C | 96% | 1013.1 hPa | 0 mm | 0 m/s | 0 W/m² | - |
| 1777984433 | 10° C | 96% | 1013 hPa | 0 mm | 0 m/s | 0 W/m² | - |
| 1777984129 | 10° C | 95% | 1013 hPa | 0 mm | 0 m/s | 0 W/m² | - |
| 1777983826 | 10° C | 95% | 1013.1 hPa | 0 mm | 0 m/s | 0 W/m² | - |
| 1777983523 | 10° C | 95% | 1013.1 hPa | 0 mm | 0 m/s | 0 W/m² | - |
* Rain latest hour (hover to see other rain measurements)
** Current wind speed in m/s (hover to see current wind gust speed)